Wind_Speed
50 51 52 52 53 53 53 54 54 53 54 54 55 55 55 55 55 56 55 55 56 55 54 54 54 54 54 53 52 51 50 51 50 49 49 50 49 49 49 49 50 50 50
51 52 52 52 53 54 54 53 54 53 54 54 55 55 55 56 56 57 57 56 56 56 56 56 55 56 56 55 54 53 52 52 52 51 50 51 51 51 51 51 51 51 50
51 52 53 53 53 54 54 54 55 54 54 55 55 56 56 56 57 57 58 57 57 57 57 57 57 57 57 56 55 54 54 54 54 53 52 52 52 52 52 52 52 52 52
50 52 52 53 53 53 54 54 54 55 56 56 56 57 57 57 57 58 58 58 58 58 59 58 58 58 58 56 56 55 55 55 55 55 54 53 54 53 54 54 54 54 54
50 51 51 53 53 54 54 54 54 55 56 57 57 57 57 58 58 58 57 57 57 58 59 59 59 59 58 58 57 56 56 57 57 56 56 55 55 56 55 55 55 55 55
48 49 50 51 52 54 55 55 55 55 56 57 57 57 57 57 57 57 57 57 57 57 58 59 59 59 59 59 58 57 58 58 59 59 58 57 56 57 57 57 57 57 56
46 48 49 50 51 53 54 55 55 56 57 57 57 57 57 57 58 58 58 58 58 57 58 59 59 59 59 58 58 58 58 58 58 58 58 58 58 58 58 59 58 58 57
45 46 47 48 49 50 51 53 54 55 56 56 56 57 57 58 58 59 59 59 59 58 59 59 59 59 59 59 59 58 57 57 58 58 58 58 58 58 58 58 58 58 57
44 45 46 47 47 48 49 50 51 52 53 55 56 56 57 58 58 59 59 59 59 58 58 59 59 59 59 59 59 58 58 58 58 59 58 58 57 57 57 58 58 58 58
42 43 44 45 46 47 47 48 49 50 50 51 53 54 55 56 56 57 58 59 58 58 58 59 59 59 58 57 58 58 58 58 59 58 58 57 57 56 57 58 57 58 58
42 43 43 45 45 46 46 47 47 48 49 50 51 51 53 54 54 55 56 57 57 57 57 57 57 57 56 56 57 57 56 57 57 57 56 56 56 55 56 56 56 57 57
41 42 43 44 45 45 45 46 47 48 48 48 49 49 50 51 52 52 53 54 54 55 54 54 54 54 54 55 55 56 55 55 55 55 55 55 54 54 54 54 54 54 54
41 41 42 42 43 43 44 45 46 47 47 47 47 48 48 49 49 49 50 52 53 53 52 52 52 53 53 53 53 53 53 53 53 53 53 53 53 53 53 53 53 53 52
40 41 41 42 42 42 43 43 44 44 45 45 45 45 46 46 47 47 48 49 50 51 51 51 51 51 51 51 50 50 51 51 52 52 52 52 52 52 52 52 52 51 51
38 39 40 40 41 41 42 42 42 43 43 42 42 43 43 43 44 45 45 46 47 48 49 49 50 50 50 50 49 49 49 49 50 51 51 51 51 51 50 50 51 51 51
36 37 37 38 38 39 39 39 39 40 40 40 40 41 41 42 42 43 44 44 45 46 47 48 49 49 49 49 49 48 48 48 48 49 50 50 50 49 49 50 51 51 51
34 34 35 35 35 35 36 36 36 37 37 37 38 39 39 39 40 41 42 43 43 45 46 46 47 47 47 48 48 47 47 47 47 48 48 48 48 48 49 49 49 50 51
32 32 32 32 32 33 33 34 34 34 35 35 36 37 37 37 38 38 40 40 41 42 43 43 44 45 45 46 47 47 47 47 47 47 48 48 48 48 48 48 49 49 50
31 31 31 30 31 31 32 32 32 33 33 33 34 34 34 35 35 36 37 38 38 39 40 40 41 42 42 43 44 45 46 47 47 47 47 47 47 47 46 47 47 48 49
30 30 30 30 30 31 31 31 31 31 31 32 32 32 33 33 34 34 35 36 37 37 38 39 39 39 40 41 42 43 44 45 45 46 46 46 46 46 45 45 45 46 46
29 29 30 30 31 31 31 31 31 31 31 31 31 31 32 32 32 32 33 34 35 35 36 36 36 37 37 38 40 41 42 42 43 44 45 45 45 45 45 44 44 44 44
29 30 30 30 31 31 31 31 31 31 31 31 31 31 31 31 31 31 31 31 32 32 33 33 33 34 35 36 36 37 38 38 39 41 41 42 42 42 42 42 42 42 42
29 29 30 30 30 30 30 30 31 31 30 30 31 31 31 31 30 30 29 29 29 29 29 30 30 31 31 31 32 32 33 34 35 36 37 37 38 38 39 40 40 40 40
29 29 29 29 29 29 29 29 29 29 29 29 29 29 29 28 28 28 27 27 27 27 27 27 27 27 28 28 28 28 29 29 30 31 32 33 34 35 37 37 38 38 38
28 28 28 28 28 28 28 28 28 28 27 27 27 27 27 26 26 26 25 25 25 25 25 25 25 25 25 25 25 26 26 27 27 28 29 30 31 32 33 34 35 35 36
26 26 26 26 27 27 26 26 26 26 25 25 26 26 26 25 25 24 24 24 24 23 23 23 23 23 23 23 23 24 24 25 26 26 27 28 28 29 30 31 32 32 33
Wind_Direction
255 256 257 258 258 259 260 261 261 262 263 264 264 265 264 265 265 266 265 265 265 264 265 265 264 264 264 264 265 266 265 264 263 261 261 261 261 261 261 261 260 259 259
256 257 258 259 259 260 260 261 262 262 263 264 265 265 265 265 266 266 266 265 264 264 264 264 264 263 264 264 265 265 265 264 264 262 260 260 260 261 261 261 261 259 259
259 259 259 259 260 260 260 261 261 262 263 265 265 265 266 266 266 266 266 265 264 263 263 263 264 264 264 264 265 265 264 264 265 264 262 260 260 261 261 261 262 260 260
260 260 260 261 261 262 262 261 262 263 264 264 265 265 266 266 267 267 266 265 264 263 263 263 264 264 264 264 264 265 264 264 265 264 263 262 261 261 262 262 262 261 260
261 261 261 262 262 262 262 262 263 263 265 265 265 265 265 266 266 266 266 265 265 264 263 263 263 264 264 264 265 266 266 265 265 264 264 263 262 261 262 262 262 261 260
263 262 262 262 262 262 262 262 263 264 265 266 266 265 266 266 267 267 266 265 264 264 263 264 264 265 266 266 266 266 266 265 265 264 263 263 263 262 262 262 261 260 259
264 264 264 264 264 264 264 265 265 265 266 266 266 266 266 267 267 267 266 265 264 264 264 264 265 266 266 266 266 266 265 265 265 264 263 263 263 263 263 261 260 259 258
265 265 265 265 266 266 266 266 267 267 267 266 267 267 267 267 268 267 266 265 265 265 264 264 264 265 266 266 266 265 265 264 264 264 264 263 263 263 262 260 258 258 258
266 266 267 267 267 268 268 268 268 268 268 268 267 267 267 268 268 267 267 266 265 264 264 264 265 266 266 266 266 266 265 264 264 263 263 262 262 261 261 260 259 259 258
267 268 268 269 269 269 270 270 270 270 270 269 268 268 268 268 268 268 267 266 265 264 264 265 266 266 266 266 266 266 265 264 263 263 262 261 261 261 261 261 260 260 258
269 269 269 270 271 271 272 272 272 271 271 271 270 269 269 269 268 268 267 266 265 264 264 264 265 266 266 266 266 266 265 264 263 262 261 260 261 261 261 261 261 260 259
271 271 271 272 273 274 274 273 273 273 273 272 271 271 270 270 269 268 267 266 265 264 263 263 264 265 266 266 267 267 265 264 262 262 261 260 260 260 260 260 260 260 260
271 272 273 273 274 275 275 275 274 274 274 273 272 272 271 271 270 269 267 265 264 264 264 263 264 264 265 266 266 266 264 262 262 261 261 260 260 259 258 259 259 258 258
272 272 274 275 275 276 276 276 275 275 275 275 274 274 273 272 271 270 268 265 265 265 264 264 264 265 265 265 265 264 263 262 262 261 261 260 260 259 258 258 258 256 256
275 275 276 276 277 277 277 277 276 275 276 276 276 275 274 272 271 269 268 267 266 265 264 264 265 265 265 264 264 264 264 263 262 261 260 259 259 258 258 257 257 257 257
276 277 277 277 278 278 277 277 277 277 277 277 277 276 275 274 271 270 268 267 267 266 266 267 266 266 265 265 263 263 263 263 262 261 260 259 258 258 258 258 258 257 257
277 278 279 279 279 279 279 279 278 278 278 278 279 278 276 275 272 271 269 268 268 268 268 268 267 266 266 264 263 262 262 262 262 261 260 259 258 258 258 259 258 258 258
278 280 280 279 279 279 280 281 280 279 278 279 279 279 278 277 275 272 271 270 269 269 269 269 268 267 266 265 264 263 262 263 262 262 260 259 259 259 259 259 259 258 258
280 280 279 280 280 280 281 283 283 282 279 279 279 280 281 280 278 275 273 272 271 270 270 269 269 268 267 266 265 264 263 263 262 262 261 260 260 259 259 259 259 258 258
281 280 280 281 282 282 284 285 284 283 281 281 282 282 282 281 280 278 276 274 273 273 271 270 270 269 269 268 266 265 264 263 263 262 261 260 260 261 260 260 259 259 259
282 282 282 283 284 285 284 285 285 284 283 283 283 283 283 283 282 281 279 277 276 274 272 271 270 270 270 269 268 267 266 264 263 262 260 260 260 260 260 260 259 258 258
283 283 283 284 285 285 285 285 285 284 284 284 284 284 284 283 283 282 281 280 279 276 273 271 271 271 272 272 272 270 267 265 263 261 260 260 260 260 260 260 258 258 257
285 285 285 286 286 287 286 285 285 285 285 285 284 284 284 283 282 282 281 280 278 276 274 273 273 274 274 274 273 271 268 265 263 261 260 260 260 260 259 259 258 258 257
287 286 286 287 287 287 286 285 285 285 285 286 285 285 284 283 282 282 282 280 278 276 274 273 273 274 275 275 274 272 269 265 263 261 261 260 261 260 260 259 258 257 257
288 288 288 288 288 288 287 286 286 286 286 286 286 286 286 285 283 283 282 281 279 277 275 274 274 276 277 277 276 273 269 265 263 262 262 261 260 260 260 258 258 258 257
289 289 288 289 289 289 289 288 287 287 286 287 287 287 286 284 283 283 283 282 281 279 276 274 276 277 278 277 276 274 272 268 265 264 264 263 262 260 260 259 258 257 257
Height
5606 5608 5610 5612 5613 5615 5616 5618 5619 5621 5622 5623 5624 5625 5626 5627 5628 5628 5629 5630 5631 5632 5633 5635 5636 5636 5637 5638 5639 5640 5640 5641 5643 5647 5648 5649 5650 5651 5653 5654 5656 5659 5661
5592 5594 5596 5598 5599 5601 5602 5604 5605 5606 5607 5608 5609 5609 5610 5611 5612 5613 5613 5614 5616 5617 5618 5620 5621 5621 5622 5623 5624 5625 5626 5627 5628 5631 5633 5634 5636 5637 5639 5641 5642 5645 5647
5579 5580 5582 5583 5585 5586 5588 5589 5590 5591 5592 5593 5593 5594 5595 5595 5596 5596 5597 5598 5600 5601 5603 5604 5605 5606 5607 5608 5609 5610 5611 5611 5613 5615 5618 5619 5621 5622 5624 5626 5628 5630 5632
5565 5566 5568 5569 5570 5571 5573 5574 5575 5576 5577 5577 5578 5578 5578 5579 5579 5580 5581 5582 5583 5585 5586 5588 5589 5590 5591 5592 5593 5594 5594 5596 5597 5599 5601 5604 5606 5607 5609 5611 5613 5615 5617
5551 5552 5553 5554 5555 5556 5558 5559 5560 5560 5561 5561 5562 5562 5562 5563 5563 5563 5564 5565 5567 5568 5570 5571 5573 5574 5574 5575 5576 5578 5578 5579 5581 5582 5585 5587 5590 5591 5593 5595 5597 5599 5601
5536 5537 5538 5539 5540 5541 5542 5543 5544 5544 5545 5545 5545 5546 5546 5546 5547 5547 5547 5548 5550 5552 5553 5555 5556 5557 5558 5558 5559 5560 5561 5562 5564 5565 5568 5570 5573 5574 5576 5577 5579 5582 5586
5522 5523 5523 5524 5525 5526 5527 5527 5528 5528 5529 5529 5529 5529 5530 5530 5530 5530 5530 5531 5533 5535 5536 5538 5539 5540 5540 5541 5542 5543 5544 5545 5546 5548 5550 5553 5555 5557 5558 5560 5562 5564 5569
5509 5509 5509 5510 5510 5511 5511 5511 5512 5512 5512 5513 5513 5513 5513 5513 5513 5513 5513 5514 5516 5518 5519 5521 5522 5523 5523 5524 5525 5526 5527 5528 5529 5530 5533 5536 5536 5538 5539 5541 5543 5546 5551
5495 5495 5496 5496 5496 5496 5496 5496 5496 5496 5496 5496 5496 5496 5496 5496 5496 5496 5496 5497 5499 5501 5502 5504 5505 5506 5507 5507 5507 5509 5511 5512 5511 5512 5514 5516 5518 5520 5521 5523 5526 5529 5533
5482 5482 5482 5482 5482 5482 5482 5481 5481 5480 5480 5479 5479 5479 5479 5480 5479 5478 5478 5479 5482 5484 5486 5487 5488 5488 5489 5488 5489 5490 5492 5494 5494 5496 5497 5499 5501 5503 5504 5505 5508 5511 5515
5469 5469 5469 5469 5468 5468 5467 5467 5466 5466 5465 5465 5464 5464 5463 5463 5463 5462 5461 5462 5464 5466 5468 5469 5470 5471 5471 5472 5472 5473 5475 5476 5476 5478 5480 5482 5484 5486 5488 5489 5491 5493 5497
5457 5456 5456 5456 5455 5454 5454 5453 5452 5451 5450 5449 5448 5448 5447 5446 5446 5446 5445 5445 5446 5448 5451 5452 5454 5454 5454 5455 5455 5456 5457 5458 5459 5461 5463 5466 5469 5471 5473 5474 5475 5477 5481
5444 5444 5443 5442 5441 5440 5440 5439 5437 5436 5435 5434 5433 5433 5432 5431 5430 5430 5430 5430 5430 5432 5434 5436 5437 5438 5438 5439 5439 5440 5440 5441 5443 5445 5448 5451 5453 5455 5457 5458 5460 5462 5465
5431 5431 5430 5429 5428 5427 5426 5425 5423 5422 5421 5420 5419 5418 5417 5417 5416 5415 5415 5415 5416 5416 5418 5420 5421 5421 5422 5423 5423 5424 5424 5425 5427 5430 5433 5435 5437 5439 5441 5443 5445 5448 5451
5419 5418 5417 5416 5415 5414 5413 5411 5410 5409 5407 5406 5405 5404 5403 5403 5402 5400 5400 5401 5402 5402 5403 5403 5405 5406 5406 5407 5408 5409 5410 5411 5412 5415 5417 5419 5421 5424 5426 5428 5431 5433 5436
5407 5406 5405 5404 5403 5402 5400 5399 5397 5396 5394 5393 5391 5390 5390 5389 5388 5387 5387 5387 5387 5388 5387 5388 5390 5391 5391 5392 5394 5395 5396 5397 5398 5399 5401 5403 5406 5409 5411 5413 5415 5418 5421
5396 5395 5394 5392 5391 5390 5388 5387 5386 5384 5382 5381 5379 5377 5376 5375 5374 5374 5373 5373 5373 5373 5373 5374 5375 5375 5376 5377 5379 5380 5382 5383 5384 5385 5387 5389 5391 5393 5396 5398 5401 5403 5406
5385 5384 5383 5382 5380 5379 5378 5376 5374 5373 5372 5370 5368 5366 5364 5363 5362 5361 5360 5360 5360 5359 5359 5360 5361 5361 5362 5363 5364 5366 5367 5369 5370 5371 5373 5375 5377 5379 5381 5384 5386 5388 5391
5375 5374 5373 5372 5370 5369 5367 5366 5364 5362 5361 5359 5357 5355 5353 5351 5350 5349 5348 5347 5347 5347 5347 5347 5348 5348 5348 5349 5350 5351 5352 5354 5355 5357 5359 5361 5363 5365 5367 5369 5371 5374 5376
5365 5364 5363 5362 5360 5359 5357 5356 5354 5352 5350 5349 5347 5345 5343 5341 5339 5338 5336 5335 5335 5335 5335 5335 5335 5335 5336 5336 5336 5337 5338 5340 5341 5343 5345 5347 5349 5351 5353 5356 5357 5359 5362
5356 5354 5353 5352 5350 5349 5347 5345 5344 5342 5340 5339 5337 5335 5333 5331 5329 5327 5326 5324 5324 5323 5323 5323 5323 5323 5323 5323 5323 5324 5325 5326 5327 5329 5331 5333 5335 5337 5340 5342 5344 5346 5348
5346 5345 5344 5342 5341 5339 5337 5335 5334 5332 5330 5328 5327 5325 5322 5321 5319 5317 5316 5314 5313 5312 5312 5312 5312 5312 5311 5311 5311 5311 5312 5313 5314 5316 5318 5320 5322 5324 5326 5328 5331 5333 5335
5337 5335 5334 5332 5330 5329 5327 5325 5323 5322 5320 5318 5316 5314 5313 5311 5309 5307 5306 5305 5304 5303 5302 5302 5302 5301 5301 5300 5300 5300 5300 5301 5303 5304 5306 5307 5309 5311 5313 5316 5318 5320 5322
5328 5326 5324 5322 5321 5319 5317 5315 5313 5311 5310 5308 5306 5304 5303 5301 5299 5298 5297 5296 5295 5294 5293 5293 5292 5292 5291 5291 5290 5290 5290 5291 5292 5293 5294 5296 5298 5300 5302 5304 5306 5308 5310
5319 5317 5315 5313 5311 5309 5308 5306 5304 5302 5300 5299 5297 5295 5293 5292 5291 5289 5288 5287 5286 5285 5285 5284 5284 5283 5283 5282 5281 5281 5281 5281 5282 5283 5284 5286 5287 5289 5291 5293 5295 5297 5299
5310 5308 5306 5304 5302 5301 5299 5297 5295 5293 5292 5290 5288 5286 5285 5283 5282 5281 5280 5279 5278 5277 5277 5276 5275 5275 5274 5274 5273 5273 5273 5273 5273 5274 5275 5276 5278 5279 5281 5282 5284 5286 5288